Tracking 17265 objects as of 5-September-2015
HD Live streaming from Space Station

Track Soyuz TMA-18M
and Space Station

TDRS 3

Track TDRS 3 now!
TDRS 3 is classified as:


NORAD ID: 19548
Int'l Code: 1988-091B
Perigee: 35,653.6 km
Apogee: 35,934.5 km
Inclination: 14.7 °
Period: 1,436.1 minutes
Semi major axis: 42165 km
RCS: 38.9601 m2 (large)
Launch date: September 29, 1988
Source: United States (US)

Backup; still partially operational.
Your satellite tracking list
Your tracking list is empty





NASA's NSSDC Master Catalog

Two Line Element Set (TLE):
1 19548U 88091B   15246.34096462 -.00000319 +00000-0 +00000-0 0  9999
2 19548 014.6756 015.1475 0033318 301.8818 085.6834 01.00270665085866

Source of the keplerian elements: AFSPC

N2YO: 334